Home   Weather   Salvador   Past weeks

Flag for Brazil Past Weather in Salvador, Bahia, Brazil — Yesterday and Last 2 Weeks

Now
81 °F

Sunny.


Feels Like: 84 °F
Forecast: 75 / 83 °F
Wind: 17 mph from Northeast

Location: Salvador Aeroporto

Current Time: Sep 26, 2016 at 4:09:43 PM

Latest Report: Sep 26, 2016 at 3:00 PM


Visibility: 10 mi

Pressure: 29.89 "Hg

Humidity: 70%

Dew Point: 70 °F

Location of SalvadorLocation

Past Weather in Salvador — Graph

°F

Salvador Temperature Yesterday

Maximum temperature yesterday: 82 °F (at 11:00 AM)
Minimum temperature yesterday: 73 °F (at 5:00 AM)
Average temperature yesterday: 78 °F

High & Low Weather Summary for the Past Weeks

 TemperatureHumidityPressure
High84 °F (Sep 16, 12:00 PM)94% (Sep 14, 12:00 AM)30.12 "Hg (Sep 14, 12:00 AM)
Low68 °F (Sep 20, 6:00 AM)48% (Sep 19, 10:00 AM)29.89 "Hg (Sep 25, 3:00 PM)
Average77 °F75%30.02 "Hg
* Reported Sep 11 3:00 PM — Sep 26 3:00 PM, Salvador, Weather by CustomWeather, © 2016

Note: Actual official high and low records may vary slightly from our data, if they occured in-between our weather recording intervals... More about our weather records

Advertising

Salvador Weather History for the Previous 24 Hours

Scroll right to see more
 ConditionsComfort  
Time TempWeatherWind HumidityBarometerVisibility
3:00 PM
Mon, Sep 26
81 °FSunny.17 mph70%29.89 "Hg10 mi
2:00 PM82 °FScattered clouds.17 mph70%29.89 "HgN/A
1:00 PM81 °FScattered clouds.16 mph70%29.92 "HgN/A
12:00 PM82 °FScattered clouds.20 mph66%29.95 "HgN/A
11:00 AM82 °FScattered clouds.17 mph70%29.98 "HgN/A
10:00 AM82 °FScattered clouds.17 mph70%29.98 "HgN/A
9:00 AM82 °FScattered clouds.16 mph66%29.98 "HgN/A
8:00 AM79 °FScattered clouds.6 mph74%29.98 "HgN/A
7:00 AM75 °FScattered clouds.3 mph83%29.98 "HgN/A
6:00 AM73 °FPassing clouds.2 mph89%29.95 "HgN/A
5:00 AM73 °FPassing clouds.2 mph89%29.92 "HgN/A
4:00 AM73 °FPassing clouds.3 mph89%29.89 "HgN/A
3:00 AM75 °FPassing clouds.3 mph83%29.89 "HgN/A
2:00 AM75 °FPassing clouds.5 mph89%29.89 "HgN/A
1:00 AM77 °FPassing clouds.7 mph79%29.92 "HgN/A
12:00 AM77 °FPassing clouds.13 mph83%29.95 "HgN/A
11:00 PM
Sun, Sep 25
77 °FPassing clouds.9 mph79%29.98 "HgN/A
10:00 PM77 °FPassing clouds.13 mph79%29.95 "HgN/A
9:00 PM77 °FPassing clouds.15 mph83%29.95 "HgN/A
8:00 PM77 °FPassing clouds.10 mph79%29.95 "HgN/A
7:00 PM77 °FPassing clouds.10 mph79%29.92 "HgN/A
6:00 PM77 °FPassing clouds.10 mph79%29.92 "HgN/A
5:00 PM79 °FPassing clouds.15 mph74%29.92 "HgN/A
4:00 PM81 °FPassing clouds.17 mph74%29.89 "HgN/A
Weather by CustomWeather, © 2016

See weather overviewHow to use our weather pages